THOR ABLESTAR DEB, 3125

Orbit data source: Space-Track

THOR ABLESTAR DEB, 3125 is space debris in LEO originally from a launch on Thu, 29 Jun 1961 UTC launched from the Air Force Eastern Test Range (AFETR). Debris objects in space refer to the collection of defunct objects orbiting the Earth. Examples of debris include non-operational satellites, rocket bodies, and fragments generated from explosions, collisions, or faulty payload assembly.

Loading next visibility...
Identifier
3125, 1961-015HY
Orbit
LEO
Country
Flag of USUS
Related business
Manufacturer
Unknown
Mission
Spacecraft
Bus & Motor
Unknown
Mass
Unknown
Launch date (UTC)
1961-06-29 (65 years ago)
Launch vehicle
Unknown
Launch site
Air Force Eastern Test Range (AFETR)
Object type
Payload
Rocket body
Debris
Shape & HBR
Unknown shape, 0.1 m
Radar Cross Section
Medium (>0.1 m² and <1 m²)

Expand to show TLE details & history
Last TLE update: 9 hours ago

TLE from 9 hours ago
0 THOR ABLESTAR DEB
1  3125U 61015HY  26177.59216520 -.00000128  00000-0 -11908-3 0  9992
2  3125  67.5559 233.6197 0298722  39.0910 108.2855 13.27610912148771
Epoch: 2026-06-26T14:12Z
TLE epoch observation values (Epoch: 2026-06-26T14:12:43.073Z)
Latitude
27.04262°
Longitude
-86.38869°
Altitude
1,234.866 km
Speed
7.203 km/s
True Right ascension
02h 46m 02s
True Declination
26° 54' 44"
Sunlit
Object was in daylight at epoch
Visualization orbit readout
Latitude
Unknown
Longitude
Unknown
Altitude
Unknown
Speed
Unknown
Apparent Right ascension
Unknown
Apparent Declination
Unknown
Sunlit
N/A
Visualization observer readout
Local Sidereal Time
10:37:40
Azimuth
Unknown
Elevation
Unknown
Doppler factor
Unknown
Orbital elements
Apogee altitude
1,379.152 km
Perigee altitude
929.14 km
Semi-major axis
7,532.283 km
Eccentricity
0.02987
Inclination
67.5559°
RAAN
233.6197°
Arg. of periapsis
39.091°
True anomaly
111.49642°
Mean anomaly
108.2855°
Eccentric anomaly
109.8949°
Mean motion
3.32012 °/min
Orbital period
108.43 mins
BSTAR
-0.00011908
Loading maneuver chart data...
Computing Atmospheric mass density...

Documentation

Showing up to 5 results
|